NOAA 16 DEB, 41501

Orbit data source: Space-Track

NOAA 16 DEB, 41501 is space debris in SSO originally from a launch on Thu, 21 Sep 2000 UTC launched from the Air Force Western Test Range (AFWTR). Debris objects in space refer to the collection of defunct objects orbiting the Earth. Examples of debris include non-operational satellites, rocket bodies, and fragments generated from explosions, collisions, or faulty payload assembly.

Loading next visibility...
NOAA 16 DEB details
Identifier
41501, 2000-055LZ
Orbit
SSO
Last TLE update13 hours ago
Origin
Flag of USNOAA (US)
ManufacturerUnknown
MissionSpacecraft
Bus & MotorUnknown
MassUnknown
Launch date (UTC)
2000-09-21 (24 years ago)
Launch vehicleUnknown
Launch site
Air Force Western Test Range (AFWTR)
Object type
Payload
Rocket body
Debris
Shape & HBRUnknown
Radar Cross SectionSmall (<0.1 m²)

Expand to show TLE details & history

TLE from 13 hours ago
0 NOAA 16 DEB
1 41501U 00055LZ  24336.80795518  .00147268  00000-0  18518-1 0  9994
2 41501  98.6824 101.3757 0021876 172.2767 187.8784 14.81065772457033
Epoch: 2024-12-01T19:23Z
Definitive object data (Epoch: 2024-12-01T19:23:27.327Z)
Latitude-0.00005°
Longitude99.37099°
Altitude644.142 km
Speed7.528 km/s
True Right ascension06h 45m 30s
True Declination0° 00' 00"
Sunlit
Object was in full shadow at TLE epoch
Visualization TLE readout
Latitude25.34865°
Longitude95.83502°
Altitude641.133 km
Speed7.533 km/s
Apparent Right ascension07h 25m 35s
Apparent Declination-35° 45' 38"
Sunlit
Object is in full shadow
Visualization observer readout
Local Sidereal Time06:14:51
Azimuth165.37° S
Elevation12.591°
Doppler factor1
Orbital elements
Apogee altitude638.354 km
Perigee altitude607.722 km
Semi-major axis7,001.175 km
Eccentricity0.0021876
Inclination98.6824°
RAAN101.3757°
Arg. of periapsis172.2767°
True anomaly187.84413°
Mean anomaly187.8784°
Eccentric anomaly187.86126°
Mean motion3.70499 °/min
BSTAR0.018518
Orbital period97.17 mins
Loading maneuver chart data...
Loading historical data...
Loading historical data...
Loading historical data...
Loading historical data...
Loading historical data...
Loading historical data...
Loading historical data...

NOAA 16 DEB Visibility forecast

Observer location: undefined°, undefined

Span
Click to sort rows by Start time (UTC) header in descending order
Start Az.
Max El. time (UTC)
Max El. Az.
Max El.
End time (UTC)
End Az.
8 mins2024-12-02 08:28:37.185Z165.454° S2024-12-02 08:32:37.185Z204.335° SW44.995°2024-12-02 08:36:37.185Z346.304° N
6 mins2024-12-02 21:54:37.185Z351.357° N2024-12-02 21:57:37.185Z269.106° W34.271°2024-12-02 22:00:37.185Z219.03° SW
|